Change the Weather History Date:

Friday, October 25, 2013

  Actual Average Record
Temperature  
Mean Temperature 46 °F -  
Max Temperature 68 °F 49 °F 71 °F (2005)
Min Temperature 27 °F 25 °F 14 °F (2002)
Degree Days  
Heating Degree Days 18    
Moisture  
Dew Point 34 °F    
Average Humidity 75    
Maximum Humidity 89    
Minimum Humidity 38    
Precipitation  
Precipitation 0.00 in - - ()
Sea Level Pressure  
Sea Level Pressure 30.26 in    
Wind  
Wind Speed 0 mph (North)    
Max Wind Speed 4 mph    
Max Gust Speed -    
Visibility 9 miles    
Events      
Averages and records for this station are not official NWS values.
T = Trace of Precipitation, MM = Missing Value Source: NWS Daily Summary

Daily Weather History Graph

Daily Weather History Graph

Search for Another Location

Airport or City:

Trip Planner

Search our weather history database for the weather conditions in past years. The results will help you decide how hot, cold, wet, or windy it might be!

Date:

Astronomy

Oct. 25, 2013 Rise Set
Actual Time 7:23 AM PDT 5:50 PM PDT
Civil Twilight 6:53 AM PDT 6:21 PM PDT
Nautical Twilight 6:18 AM PDT 6:55 PM PDT
Astronomical Twilight 5:44 AM PDT 7:30 PM PDT
Moon 11:11 PM PDT (10/25) 1:11 PM PDT (10/25)
Length of Visible Light 11h 27m
Length of Day
10h 26m
Waning Gibbous, 61% of the Moon is Illuminated
Oct 25
Waning Gibbous
Oct 26
Last Quarter
Nov 3
New
Nov 9
First Quarter
Nov 17
Full

Hourly Weather History & Observations

Time (PDT) Temp. Dew Point Humidity Pressure Visibility Wind Dir Wind Speed Gust Speed Precip Events Conditions
12:56 AM 30.9 °F 28.0 °F 89% 30.16 in 10.0 mi Calm Calm - N/A   Clear
1:56 AM 30.0 °F 27.0 °F 88% 30.17 in 9.0 mi Calm Calm - N/A   Clear
2:56 AM 28.9 °F 26.1 °F 89% 30.17 in 7.0 mi Calm Calm - N/A   Clear
3:56 AM 28.9 °F 25.0 °F 85% 30.18 in 10.0 mi Calm Calm - N/A   Clear
4:56 AM 28.0 °F 25.0 °F 88% 30.20 in 10.0 mi Calm Calm - N/A   Clear
5:56 AM 28.0 °F 25.0 °F 88% 30.23 in 10.0 mi Calm Calm - N/A   Clear
6:56 AM 27.0 °F 23.0 °F 85% 30.25 in 10.0 mi Calm Calm - N/A   Clear
7:56 AM 27.0 °F 23.0 °F 85% 30.28 in 6.0 mi Calm Calm - N/A   Clear
8:56 AM 30.0 °F 26.1 °F 85% 30.29 in 9.0 mi Calm Calm - N/A   Clear
9:56 AM 42.1 °F 37.0 °F 82% 30.28 in 10.0 mi Calm Calm - N/A   Clear
10:56 AM 57.0 °F 41.0 °F 55% 30.25 in 10.0 mi Calm Calm - N/A   Clear
11:56 AM 64.0 °F 37.9 °F 38% 30.25 in 10.0 mi Calm Calm - N/A   Clear
12:56 PM 64.9 °F 39.9 °F 40% 30.25 in 10.0 mi Variable 3.5 mph - N/A   Clear
1:56 PM 66.0 °F 39.9 °F 38% 30.24 in 10.0 mi Calm Calm - N/A   Clear
2:56 PM 64.9 °F 45.0 °F 48% 30.24 in 10.0 mi Variable 3.5 mph - N/A   Clear
3:56 PM 62.1 °F 45.0 °F 53% 30.26 in 10.0 mi Calm Calm - N/A   Clear
4:56 PM 57.0 °F 45.0 °F 64% 30.27 in 10.0 mi Calm Calm - N/A   Clear
5:56 PM 51.1 °F 44.1 °F 77% 30.29 in 10.0 mi Calm Calm - N/A   Clear
6:56 PM 45.0 °F 39.9 °F 82% 30.32 in 10.0 mi Calm Calm - N/A   Clear
7:56 PM 41.0 °F 37.9 °F 89% 30.33 in 9.0 mi Calm Calm - N/A   Clear
8:56 PM 37.9 °F 35.1 °F 89% 30.33 in 9.0 mi Calm Calm - N/A   Clear
9:56 PM 35.1 °F 32.0 °F 89% 30.32 in 8.0 mi Calm Calm - N/A   Clear
10:56 PM 33.1 °F 30.0 °F 89% 30.29 in 5.0 mi Calm Calm - N/A   Clear
11:56 PM 30.9 °F 28.0 °F 89% 30.28 in 5.0 mi Calm Calm - N/A   Clear